Погода в Федоровке

Украина / Запорожская область     47°33′04″N   36°32′54″E
темп.,
°C
ветер,
м/с
пор.,
м/с
влажн.,
%
обл.,
%
осадки,
мм/ч
давл.,
гПа
погр.,
м
19 сентября, вс
вс1900:00+16ююв4107990 0.0 1010303
03:00+17ююв5107768 0.0 1010509
06:00+18ю71184100 0.0 1009659
09:00+18ю6986100 0.9 1008821
12:00+18ююз3688100 11.3 1008474
15:00+18ююз578255 12.4 1009660
18:00+19ююз467517 1.1 1008236
21:00+15ююз468954 3.1 100892
20 сентября, пн
пн2000:00+16юз348276 0.1 100951
03:00+16зюз48735 0.1 1009208
06:00+13юз48825 0.0 1010183
09:00+15з586696 0.0 1011535
12:00+16з695464 0.0 1012805
15:00+17зюз575043 0.0 1012907
18:00+16юз355311 0.0 1011166
21:00+15зсз4753100 0.0 1013359
21 сентября, вт
вт2100:00+12сз2264100 0.0 101434
03:00+11зсз2466100 0.0 1014113
06:00+11з2468100 0.0 1013198
09:00+11з4673100 0.0 1014501
12:00+10з4557100 0.1 1015742
15:00+15з784318 0.1 10131633
18:00+12зсз68497 0.0 1014749
21:00+9зсз6873100 0.0 1016653
22 сентября, ср
ср2200:00+8зсз5776100 0.0 1017806
03:00+8зсз5779100 0.0 1016748
06:00+8зсз4680100 0.0 1017707
09:00+8зсз4578100 0.0 1017707
12:00+9зсз3473100 0.1 1017876
15:00+10зсз3365100 0.1 10161046
18:00+10сз1167100 0.0 1016553
21:00+9юв1170100 0.1 101638
23 сентября, чт
чт2300:00+8ююв1174100 0.0 101519
03:00+9юв1173100 0.0 101473
06:00+8вюв1177100 0.0 101410
09:00+10всв116889 0.0 1014512
12:00+12с1256100 0.1 10131387
15:00+12св2159100 0.1 1013593
18:00+11ссз34647 0.1 1013472
21:00+8с35825 0.1 1014110